Time,TemperatureF,DewpointF,PressureIn,WindDirection,WindDirectionDegrees,WindSpeedMPH,WindSpeedGustMPH,Humidity,HourlyPrecipIn,Conditions,Clouds,dailyrainin,SoftwareType,DateUTC
2013-09-12 00:06:00,51.0,51.0,30.47,NNW,340,0.0,0.0,97,-99.99,,,-99.99,,2013-09-12 06:06:00,
2013-09-12 00:11:00,51.0,51.0,30.47,NNW,340,0.0,0.0,97,-99.99,,,-99.99,,2013-09-12 06:11:00,
2013-09-12 00:16:00,51.0,51.0,30.47,NNW,340,0.0,0.0,98,-99.99,,,-99.99,,2013-09-12 06:16:00,
2013-09-12 00:21:00,51.0,51.0,30.47,NNW,340,0.0,0.0,98,-99.99,,,-99.99,,2013-09-12 06:21:00,
2013-09-12 00:31:00,51.0,51.0,30.48,NNW,340,0.0,0.0,98,-99.99,,,-99.99,,2013-09-12 06:31:00,
2013-09-12 00:36:00,51.0,50.0,30.48,NNW,340,0.0,0.0,98,-99.99,,,-99.99,,2013-09-12 06:36:00,
2013-09-12 00:46:00,51.0,51.0,30.48,NNW,340,0.0,0.0,98,-99.99,,,-99.99,,2013-09-12 06:46:00,
2013-09-12 00:51:00,51.0,51.0,30.48,NNW,340,0.0,0.0,98,-99.99,,,-99.99,,2013-09-12 06:51:00,
2013-09-12 01:01:00,51.0,51.0,30.47,NNW,340,0.0,0.0,98,-99.99,,,-99.99,,2013-09-12 07:01:00,
2013-09-12 01:11:00,51.0,51.0,30.47,NNW,340,0.0,0.0,98,-99.99,,,-99.99,,2013-09-12 07:11:00,
2013-09-12 01:21:00,51.0,51.0,30.47,NNW,340,0.0,0.0,99,-99.99,,,-99.99,,2013-09-12 07:21:00,
2013-09-12 01:31:00,51.0,51.0,30.47,NNW,340,0.0,0.0,99,-99.99,,,-99.99,,2013-09-12 07:31:00,
2013-09-12 01:41:00,51.0,51.0,30.48,North,350,0.0,6.0,98,-99.99,,,-99.99,,2013-09-12 07:41:00,
2013-09-12 01:46:00,51.0,50.0,30.48,North,350,0.0,6.0,98,-99.99,,,-99.99,,2013-09-12 07:46:00,
2013-09-12 01:56:00,51.0,50.0,30.48,North,350,0.0,0.0,99,-99.99,,,-99.99,,2013-09-12 07:56:00,
2013-09-12 02:06:00,51.0,50.0,30.48,North,350,0.0,0.0,99,-99.99,,,-99.99,,2013-09-12 08:06:00,
2013-09-12 02:11:00,50.0,50.0,30.48,North,350,0.0,0.0,99,-99.99,,,-99.99,,2013-09-12 08:11:00,
2013-09-12 02:16:00,50.0,50.0,30.48,North,350,0.0,0.0,99,-99.99,,,-99.99,,2013-09-12 08:16:00,
2013-09-12 02:26:00,50.0,49.0,30.48,North,350,0.0,0.0,99,-99.99,,,-99.99,,2013-09-12 08:26:00,
2013-09-12 02:31:00,50.0,49.0,30.47,North,350,0.0,0.0,99,-99.99,,,-99.99,,2013-09-12 08:31:00,
2013-09-12 02:36:00,50.0,49.0,30.48,North,350,0.0,0.0,99,-99.99,,,-99.99,,2013-09-12 08:36:00,
2013-09-12 02:41:00,50.0,49.0,30.48,North,350,0.0,0.0,99,-99.99,,,-99.99,,2013-09-12 08:41:00,
2013-09-12 02:51:00,49.0,49.0,30.47,North,350,0.0,0.0,99,-99.99,,,-99.99,,2013-09-12 08:51:00,
2013-09-12 02:56:00,49.0,49.0,30.47,North,350,0.0,0.0,99,-99.99,,,-99.99,,2013-09-12 08:56:00,
2013-09-12 03:01:00,49.0,49.0,30.47,North,350,0.0,0.0,99,-99.99,,,-99.99,,2013-09-12 09:01:00,
2013-09-12 03:06:00,49.0,49.0,30.47,North,350,0.0,0.0,99,-99.99,,,-99.99,,2013-09-12 09:06:00,
2013-09-12 03:16:00,49.0,49.0,30.47,NW,320,0.0,0.0,100,-99.99,,,-99.99,,2013-09-12 09:16:00,
2013-09-12 03:21:00,49.0,49.0,30.47,NW,320,0.0,6.0,100,-99.99,,,-99.99,,2013-09-12 09:21:00,
2013-09-12 03:26:00,49.0,49.0,30.47,NW,320,0.0,0.0,100,-99.99,,,-99.99,,2013-09-12 09:26:00,
2013-09-12 03:36:00,49.0,49.0,30.46,NW,320,0.0,0.0,100,-99.99,,,-99.99,,2013-09-12 09:36:00,
2013-09-12 03:46:00,49.0,49.0,30.46,NNW,340,0.0,8.0,100,-99.99,,,-99.99,,2013-09-12 09:46:00,
2013-09-12 03:56:00,49.0,49.0,30.46,NNW,340,0.0,0.0,100,-99.99,,,-99.99,,2013-09-12 09:56:00,
2013-09-12 04:01:00,49.0,49.0,30.47,NNW,340,0.0,0.0,100,-99.99,,,-99.99,,2013-09-12 10:01:00,
2013-09-12 04:11:00,49.0,49.0,30.47,NNW,340,0.0,0.0,100,-99.99,,,-99.99,,2013-09-12 10:11:00,
2013-09-12 04:16:00,49.0,49.0,30.46,NNW,340,0.0,0.0,100,-99.99,,,-99.99,,2013-09-12 10:16:00,
2013-09-12 04:26:00,49.0,49.0,30.47,NNW,340,0.0,0.0,100,-99.99,,,-99.99,,2013-09-12 10:26:00,
2013-09-12 04:31:00,49.0,49.0,30.46,NNW,340,0.0,0.0,100,-99.99,,,-99.99,,2013-09-12 10:31:00,
2013-09-12 04:41:00,49.0,49.0,30.46,NNW,340,0.0,0.0,100,-99.99,,,-99.99,,2013-09-12 10:41:00,
2013-09-12 04:51:00,49.0,49.0,30.47,NNW,340,0.0,0.0,100,-99.99,,,-99.99,,2013-09-12 10:51:00,
2013-09-12 05:01:00,49.0,49.0,30.46,NNW,340,0.0,3.0,100,-99.99,,,-99.99,,2013-09-12 11:01:00,
2013-09-12 05:06:00,49.0,49.0,30.46,NNW,340,0.0,0.0,100,-99.99,,,-99.99,,2013-09-12 11:06:00,
2013-09-12 05:11:00,49.0,49.0,30.46,WNW,290,5.0,5.0,100,-99.99,,,-99.99,,2013-09-12 11:11:00,
2013-09-12 05:21:00,49.0,49.0,30.46,NNW,330,0.0,7.0,100,-99.99,,,-99.99,,2013-09-12 11:21:00,
2013-09-12 05:31:00,48.0,48.0,30.46,NW,320,4.0,4.0,100,-99.99,,,-99.99,,2013-09-12 11:31:00,
2013-09-12 05:36:00,48.0,48.0,30.46,North,10,0.0,4.0,100,-99.99,,,-99.99,,2013-09-12 11:36:00,
2013-09-12 05:46:00,48.0,48.0,30.47,North,10,0.0,0.0,100,-99.99,,,-99.99,,2013-09-12 11:46:00,
2013-09-12 05:56:00,48.0,48.0,30.47,NNW,340,0.0,0.0,100,-99.99,,,-99.99,,2013-09-12 11:56:00,
2013-09-12 06:06:00,47.0,47.0,30.47,NNW,340,0.0,0.0,100,-99.99,,,-99.99,,2013-09-12 12:06:00,
2013-09-12 06:11:00,47.0,47.0,30.47,NNW,340,0.0,0.0,100,-99.99,,,-99.99,,2013-09-12 12:11:00,
2013-09-12 06:21:00,47.0,47.0,30.47,NNW,340,0.0,0.0,100,-99.99,,,-99.99,,2013-09-12 12:21:00,
2013-09-12 06:26:00,47.0,47.0,30.47,NNW,340,0.0,0.0,100,-99.99,,,-99.99,,2013-09-12 12:26:00,
2013-09-12 06:36:00,47.0,47.0,30.47,NNW,340,0.0,0.0,100,-99.99,,,-99.99,,2013-09-12 12:36:00,
2013-09-12 06:46:00,47.0,47.0,30.48,North,350,4.0,0.0,100,-99.99,,,-99.99,,2013-09-12 12:46:00,
2013-09-12 06:51:00,47.0,47.0,30.48,NNW,330,0.0,7.0,100,-99.99,,,-99.99,,2013-09-12 12:51:00,
2013-09-12 06:56:00,47.0,47.0,30.48,NNW,330,3.0,5.0,100,-99.99,,,-99.99,,2013-09-12 12:56:00,
2013-09-12 07:01:00,47.0,47.0,30.48,NNW,330,0.0,7.0,100,-99.99,,,-99.99,,2013-09-12 13:01:00,
2013-09-12 07:06:00,47.0,47.0,30.48,North,0,0.0,4.0,100,-99.99,,,-99.99,,2013-09-12 13:06:00,
2013-09-12 07:16:00,46.0,46.0,30.48,North,0,0.0,0.0,100,-99.99,,,-99.99,,2013-09-12 13:16:00,
2013-09-12 07:26:00,46.0,46.0,30.48,North,0,0.0,0.0,100,-99.99,,,-99.99,,2013-09-12 13:26:00,
2013-09-12 07:31:00,46.0,46.0,30.49,North,0,0.0,5.0,100,-99.99,,,-99.99,,2013-09-12 13:31:00,
2013-09-12 07:36:00,46.0,46.0,30.49,North,0,0.0,0.0,100,-99.99,,,-99.99,,2013-09-12 13:36:00,
2013-09-12 07:41:00,47.0,47.0,30.49,North,0,0.0,0.0,100,-99.99,,,-99.99,,2013-09-12 13:41:00,
2013-09-12 07:46:00,47.0,47.0,30.49,North,0,0.0,0.0,100,-99.99,,,-99.99,,2013-09-12 13:46:00,
2013-09-12 07:51:00,48.0,48.0,30.49,North,0,0.0,0.0,100,-99.99,,,-99.99,,2013-09-12 13:51:00,
2013-09-12 07:56:00,49.0,48.0,30.49,North,0,0.0,0.0,99,-99.99,,,-99.99,,2013-09-12 13:56:00,
2013-09-12 08:06:00,49.0,49.0,30.50,North,0,0.0,0.0,99,-99.99,,,-99.99,,2013-09-12 14:06:00,
2013-09-12 08:11:00,50.0,49.0,30.50,WNW,300,3.0,4.0,99,-99.99,,,-99.99,,2013-09-12 14:11:00,
2013-09-12 08:16:00,50.0,50.0,30.49,West,260,5.0,6.0,98,-99.99,,,-99.99,,2013-09-12 14:16:00,
2013-09-12 08:21:00,51.0,50.0,30.49,WNW,300,7.0,7.0,97,-99.99,,,-99.99,,2013-09-12 14:21:00,
2013-09-12 08:31:00,52.0,50.0,30.49,WNW,290,0.0,9.0,95,-99.99,,,-99.99,,2013-09-12 14:31:00,
2013-09-12 08:36:00,52.0,51.0,30.49,West,280,6.0,8.0,94,-99.99,,,-99.99,,2013-09-12 14:36:00,
2013-09-12 08:41:00,53.0,51.0,30.50,WNW,300,7.0,7.0,93,-99.99,,,-99.99,,2013-09-12 14:41:00,
2013-09-12 08:46:00,53.0,51.0,30.50,WNW,300,7.0,9.0,93,-99.99,,,-99.99,,2013-09-12 14:46:00,
2013-09-12 08:51:00,53.0,51.0,30.50,NNW,330,7.0,10.0,93,-99.99,,,-99.99,,2013-09-12 14:51:00,
2013-09-12 09:01:00,53.0,51.0,30.50,WNW,290,8.0,10.0,92,-99.99,,,-99.99,,2013-09-12 15:01:00,
2013-09-12 09:11:00,54.0,51.0,30.50,West,280,10.0,10.0,91,-99.99,,,-99.99,,2013-09-12 15:11:00,
2013-09-12 09:16:00,54.0,51.0,30.49,WNW,300,10.0,10.0,89,-99.99,,,-99.99,,2013-09-12 15:16:00,
2013-09-12 09:21:00,55.0,51.0,30.50,West,280,5.0,10.0,88,-99.99,,,-99.99,,2013-09-12 15:21:00,
2013-09-12 09:31:00,55.0,52.0,30.50,NW,320,6.0,9.0,88,-99.99,,,-99.99,,2013-09-12 15:31:00,
2013-09-12 09:41:00,56.0,52.0,30.50,WNW,290,7.0,9.0,86,-99.99,,,-99.99,,2013-09-12 15:41:00,
2013-09-12 09:46:00,57.0,52.0,30.50,WSW,250,0.0,7.0,85,-99.99,,,-99.99,,2013-09-12 15:46:00,
2013-09-12 09:51:00,58.0,52.0,30.50,NW,310,0.0,6.0,82,-99.99,,,-99.99,,2013-09-12 15:51:00,
2013-09-12 09:56:00,58.0,53.0,30.50,NW,310,0.0,6.0,83,-99.99,,,-99.99,,2013-09-12 15:56:00,
2013-09-12 10:06:00,59.0,54.0,30.50,WSW,240,3.0,3.0,81,-99.99,,,-99.99,,2013-09-12 16:06:00,
2013-09-12 10:11:00,60.0,54.0,30.50,NW,310,0.0,4.0,80,-99.99,,,-99.99,,2013-09-12 16:11:00,
2013-09-12 10:16:00,60.0,53.0,30.50,NNW,330,0.0,1.0,76,-99.99,,,-99.99,,2013-09-12 16:16:00,
2013-09-12 10:21:00,61.0,53.0,30.50,NNW,330,0.0,4.0,77,-99.99,,,-99.99,,2013-09-12 16:21:00,
2013-09-12 10:31:00,62.0,54.0,30.50,SSE,150,0.0,6.0,76,-99.99,,,-99.99,,2013-09-12 16:31:00,
2013-09-12 10:41:00,62.0,53.0,30.50,SE,140,1.0,4.0,73,-99.99,,,-99.99,,2013-09-12 16:41:00,
2013-09-12 10:51:00,63.0,53.0,30.49,NNE,30,0.0,6.0,70,-99.99,,,-99.99,,2013-09-12 16:51:00,
2013-09-12 11:01:00,63.0,53.0,30.48,SSW,210,5.0,6.0,70,-99.99,,,-99.99,,2013-09-12 17:01:00,
2013-09-12 11:06:00,64.0,53.0,30.48,SSW,200,6.0,6.0,69,-99.99,,,-99.99,,2013-09-12 17:06:00,
2013-09-12 11:16:00,65.0,55.0,30.48,South,180,8.0,12.0,69,-99.99,,,-99.99,,2013-09-12 17:16:00,
2013-09-12 11:26:00,66.0,53.0,30.48,SSE,160,11.0,14.0,63,-99.99,,,-99.99,,2013-09-12 17:26:00,
2013-09-12 11:31:00,67.0,54.0,30.48,South,170,11.0,12.0,63,-99.99,,,-99.99,,2013-09-12 17:31:00,
2013-09-12 11:41:00,67.0,53.0,30.48,East,100,5.0,15.0,59,-99.99,,,-99.99,,2013-09-12 17:41:00,
2013-09-12 11:46:00,67.0,53.0,30.48,South,170,12.0,14.0,60,-99.99,,,-99.99,,2013-09-12 17:46:00,
2013-09-12 11:51:00,67.0,52.0,30.48,SSE,150,9.0,14.0,59,-99.99,,,-99.99,,2013-09-12 17:51:00,
2013-09-12 11:56:00,68.0,53.0,30.47,SSE,160,9.0,13.0,60,-99.99,,,-99.99,,2013-09-12 17:56:00,
2013-09-12 12:01:00,68.0,54.0,30.47,South,180,9.0,12.0,61,-99.99,,,-99.99,,2013-09-12 18:01:00,
2013-09-12 12:11:00,69.0,52.0,30.47,SE,130,10.0,12.0,55,-99.99,,,-99.99,,2013-09-12 18:11:00,
2013-09-12 12:16:00,69.0,54.0,30.47,South,170,11.0,12.0,59,-99.99,,,-99.99,,2013-09-12 18:16:00,
2013-09-12 12:26:00,69.0,51.0,30.47,SSE,150,7.0,10.0,53,-99.99,,,-99.99,,2013-09-12 18:26:00,
2013-09-12 12:31:00,68.0,51.0,30.46,SE,140,11.0,12.0,54,-99.99,,,-99.99,,2013-09-12 18:31:00,
2013-09-12 12:36:00,67.0,51.0,30.46,SE,140,5.0,11.0,56,-99.99,,,-99.99,,2013-09-12 18:36:00,
2013-09-12 12:41:00,67.0,51.0,30.45,South,170,10.0,11.0,56,-99.99,,,-99.99,,2013-09-12 18:41:00,
2013-09-12 12:51:00,68.0,50.0,30.45,SE,130,5.0,13.0,53,-99.99,,,-99.99,,2013-09-12 18:51:00,
2013-09-12 12:56:00,68.0,50.0,30.45,SSE,150,9.0,12.0,53,-99.99,,,-99.99,,2013-09-12 18:56:00,
2013-09-12 13:01:00,68.0,49.0,30.44,ENE,60,6.0,11.0,51,-99.99,,,-99.99,,2013-09-12 19:01:00,
2013-09-12 13:06:00,68.0,49.0,30.44,SSE,160,0.0,9.0,52,-99.99,,,-99.99,,2013-09-12 19:06:00,
2013-09-12 13:11:00,68.0,50.0,30.43,SSE,150,3.0,8.0,52,-99.99,,,-99.99,,2013-09-12 19:11:00,
2013-09-12 13:16:00,67.0,50.0,30.43,SSW,210,7.0,9.0,53,-99.99,,,-99.99,,2013-09-12 19:16:00,
2013-09-12 13:21:00,67.0,50.0,30.43,SE,130,3.0,11.0,55,-99.99,,,-99.99,,2013-09-12 19:21:00,
2013-09-12 13:26:00,67.0,51.0,30.43,East,100,0.0,8.0,58,-99.99,,,-99.99,,2013-09-12 19:26:00,
2013-09-12 13:31:00,65.0,51.0,30.43,NW,320,11.0,11.0,60,-99.99,,,-99.99,,2013-09-12 19:31:00,
2013-09-12 13:41:00,62.0,52.0,30.43,West,270,7.0,11.0,69,-99.99,,,-99.99,,2013-09-12 19:41:00,
2013-09-12 13:46:00,61.0,52.0,30.43,WSW,240,10.0,14.0,73,-99.99,,,-99.99,,2013-09-12 19:46:00,
2013-09-12 13:56:00,59.0,52.0,30.45,SW,220,17.0,17.0,75,-99.99,,,-99.99,,2013-09-12 19:56:00,
2013-09-12 14:01:00,58.0,49.0,30.45,WSW,240,26.0,26.0,72,-99.99,,,-99.99,,2013-09-12 20:01:00,
2013-09-12 14:11:00,55.0,48.0,30.45,West,260,11.0,23.0,78,-99.99,,,-99.99,,2013-09-12 20:11:00,
2013-09-12 14:16:00,55.0,50.0,30.45,NE,40,6.0,17.0,82,-99.99,,,-99.99,,2013-09-12 20:16:00,
2013-09-12 14:21:00,55.0,51.0,30.45,NNE,20,4.0,9.0,87,-99.99,,,-99.99,,2013-09-12 20:21:00,
2013-09-12 14:26:00,56.0,52.0,30.45,North,0,0.0,11.0,87,-99.99,,,-99.99,,2013-09-12 20:26:00,
2013-09-12 14:31:00,58.0,52.0,30.45,WNW,290,8.0,8.0,80,-99.99,,,-99.99,,2013-09-12 20:31:00,
2013-09-12 14:36:00,59.0,53.0,30.45,WSW,250,9.0,9.0,81,-99.99,,,-99.99,,2013-09-12 20:36:00,
2013-09-12 14:41:00,59.0,52.0,30.45,WSW,250,10.0,10.0,77,-99.99,,,-99.99,,2013-09-12 20:41:00,
2013-09-12 14:46:00,60.0,52.0,30.45,North,350,7.0,12.0,73,-99.99,,,-99.99,,2013-09-12 20:46:00,
2013-09-12 14:51:00,61.0,51.0,30.45,North,0,4.0,12.0,70,-99.99,,,-99.99,,2013-09-12 20:51:00,
2013-09-12 14:56:00,61.0,52.0,30.45,North,10,3.0,11.0,72,-99.99,,,-99.99,,2013-09-12 20:56:00,
2013-09-12 15:06:00,61.0,52.0,30.45,West,260,8.0,8.0,74,-99.99,,,-99.99,,2013-09-12 21:06:00,
2013-09-12 15:16:00,62.0,52.0,30.44,WSW,240,8.0,9.0,68,-99.99,,,-99.99,,2013-09-12 21:16:00,
2013-09-12 15:21:00,63.0,53.0,30.44,NW,310,5.0,9.0,69,-99.99,,,-99.99,,2013-09-12 21:21:00,
2013-09-12 15:31:00,63.0,52.0,30.44,NW,320,0.0,9.0,65,-99.99,,,-99.99,,2013-09-12 21:31:00,
2013-09-12 15:36:00,63.0,52.0,30.43,ESE,110,2.0,6.0,67,-99.99,,,-99.99,,2013-09-12 21:36:00,
2013-09-12 15:46:00,62.0,52.0,30.42,East,90,7.0,8.0,69,-99.99,,,-99.99,,2013-09-12 21:46:00,
2013-09-12 15:51:00,62.0,52.0,30.42,NE,50,0.0,10.0,70,-99.99,,,-99.99,,2013-09-12 21:51:00,
2013-09-12 16:01:00,64.0,53.0,30.41,West,260,7.0,7.0,68,-99.99,,,-99.99,,2013-09-12 22:01:00,
2013-09-12 16:11:00,65.0,53.0,30.41,WSW,240,6.0,7.0,65,-99.99,,,-99.99,,2013-09-12 22:11:00,
2013-09-12 16:21:00,66.0,52.0,30.40,West,280,8.0,8.0,61,-99.99,,,-99.99,,2013-09-12 22:21:00,
2013-09-12 16:26:00,66.0,52.0,30.40,WNW,300,9.0,9.0,60,-99.99,,,-99.99,,2013-09-12 22:26:00,
2013-09-12 16:36:00,67.0,53.0,30.40,West,260,4.0,11.0,59,-99.99,,,-99.99,,2013-09-12 22:36:00,
2013-09-12 16:41:00,68.0,53.0,30.39,West,280,8.0,10.0,58,-99.99,,,-99.99,,2013-09-12 22:41:00,
2013-09-12 16:51:00,67.0,51.0,30.39,West,280,12.0,12.0,56,-99.99,,,-99.99,,2013-09-12 22:51:00,
2013-09-12 16:56:00,66.0,51.0,30.39,WNW,290,7.0,12.0,58,-99.99,,,-99.99,,2013-09-12 22:56:00,
2013-09-12 17:06:00,65.0,51.0,30.38,WNW,290,8.0,10.0,60,-99.99,,,-99.99,,2013-09-12 23:06:00,
2013-09-12 17:16:00,64.0,52.0,30.38,NW,310,4.0,10.0,63,-99.99,,,-99.99,,2013-09-12 23:16:00,
2013-09-12 17:21:00,64.0,52.0,30.37,NNW,340,5.0,7.0,65,-99.99,,,-99.99,,2013-09-12 23:21:00,
2013-09-12 17:26:00,64.0,53.0,30.37,NE,40,0.0,5.0,67,-99.99,,,-99.99,,2013-09-12 23:26:00,
2013-09-12 17:31:00,64.0,54.0,30.37,NE,40,0.0,4.0,70,-99.99,,,-99.99,,2013-09-12 23:31:00,
2013-09-12 17:36:00,64.0,54.0,30.37,South,170,5.0,0.0,71,-99.99,,,-99.99,,2013-09-12 23:36:00,
2013-09-12 17:41:00,64.0,56.0,30.39,South,180,12.0,12.0,77,-99.99,,,-99.99,,2013-09-12 23:41:00,
2013-09-12 17:46:00,63.0,55.0,30.40,SSE,150,15.0,15.0,76,-99.99,,,-99.99,,2013-09-12 23:46:00,
2013-09-12 17:56:00,59.0,54.0,30.42,South,170,16.0,24.0,82,-99.99,,,-99.99,,2013-09-12 23:56:00,
2013-09-12 18:01:00,58.0,54.0,30.43,ESE,120,9.0,24.0,87,-99.99,,,-99.99,,2013-09-13 00:01:00,
2013-09-12 18:11:00,56.0,53.0,30.42,South,190,10.0,14.0,93,-99.99,,,-99.99,,2013-09-13 00:11:00,
2013-09-12 18:21:00,55.0,53.0,30.43,South,190,13.0,14.0,94,-99.99,,,-99.99,,2013-09-13 00:21:00,
2013-09-12 18:31:00,55.0,53.0,30.44,SE,140,7.0,16.0,94,-99.99,,,-99.99,,2013-09-13 00:31:00,
2013-09-12 18:36:00,54.0,53.0,30.44,ESE,110,0.0,11.0,95,-99.99,,,-99.99,,2013-09-13 00:36:00,
2013-09-12 18:46:00,54.0,53.0,30.44,SE,140,0.0,5.0,95,-99.99,,,-99.99,,2013-09-13 00:46:00,
2013-09-12 18:56:00,55.0,53.0,30.45,East,100,0.0,0.0,95,-99.99,,,-99.99,,2013-09-13 00:56:00,
2013-09-12 19:01:00,55.0,53.0,30.45,East,100,0.0,4.0,96,-99.99,,,-99.99,,2013-09-13 01:01:00,
2013-09-12 19:06:00,54.0,53.0,30.45,East,100,0.0,0.0,95,-99.99,,,-99.99,,2013-09-13 01:06:00,
2013-09-12 19:16:00,54.0,53.0,30.45,East,100,0.0,0.0,96,-99.99,,,-99.99,,2013-09-13 01:16:00,
2013-09-12 19:21:00,54.0,53.0,30.45,East,100,0.0,0.0,97,-99.99,,,-99.99,,2013-09-13 01:21:00,
2013-09-12 19:26:00,54.0,54.0,30.45,East,100,0.0,0.0,97,-99.99,,,-99.99,,2013-09-13 01:26:00,
2013-09-12 19:31:00,54.0,53.0,30.45,East,100,0.0,0.0,97,-99.99,,,-99.99,,2013-09-13 01:31:00,
2013-09-12 19:36:00,54.0,53.0,30.45,East,100,0.0,0.0,97,-99.99,,,-99.99,,2013-09-13 01:36:00,
2013-09-12 19:46:00,54.0,53.0,30.44,East,100,0.0,0.0,97,-99.99,,,-99.99,,2013-09-13 01:46:00,
2013-09-12 19:51:00,54.0,53.0,30.45,East,100,0.0,0.0,96,-99.99,,,-99.99,,2013-09-13 01:51:00,
2013-09-12 19:56:00,54.0,53.0,30.45,East,100,0.0,0.0,97,-99.99,,,-99.99,,2013-09-13 01:56:00,
2013-09-12 20:01:00,54.0,53.0,30.45,East,100,0.0,0.0,97,-99.99,,,-99.99,,2013-09-13 02:01:00,
2013-09-12 20:11:00,54.0,53.0,30.45,East,100,0.0,0.0,97,-99.99,,,-99.99,,2013-09-13 02:11:00,
2013-09-12 20:16:00,54.0,53.0,30.45,East,100,0.0,0.0,97,-99.99,,,-99.99,,2013-09-13 02:16:00,
2013-09-12 20:26:00,54.0,53.0,30.46,East,100,0.0,0.0,96,-99.99,,,-99.99,,2013-09-13 02:26:00,
2013-09-12 20:31:00,54.0,53.0,30.45,East,100,0.0,0.0,96,-99.99,,,-99.99,,2013-09-13 02:31:00,
2013-09-12 20:36:00,54.0,53.0,30.46,East,100,0.0,0.0,96,-99.99,,,-99.99,,2013-09-13 02:36:00,
2013-09-12 20:46:00,54.0,53.0,30.46,East,100,0.0,0.0,97,-99.99,,,-99.99,,2013-09-13 02:46:00,
2013-09-12 20:51:00,54.0,53.0,30.46,East,100,0.0,0.0,97,-99.99,,,-99.99,,2013-09-13 02:51:00,
2013-09-12 20:56:00,54.0,53.0,30.46,East,100,0.0,0.0,97,-99.99,,,-99.99,,2013-09-13 02:56:00,
2013-09-12 21:01:00,54.0,53.0,30.46,East,100,0.0,0.0,97,-99.99,,,-99.99,,2013-09-13 03:01:00,
2013-09-12 21:11:00,53.0,53.0,30.45,East,100,0.0,0.0,97,-99.99,,,-99.99,,2013-09-13 03:11:00,
2013-09-12 21:21:00,53.0,53.0,30.46,East,100,0.0,0.0,97,-99.99,,,-99.99,,2013-09-13 03:21:00,
2013-09-12 21:31:00,53.0,52.0,30.45,East,100,0.0,0.0,97,-99.99,,,-99.99,,2013-09-13 03:31:00,
2013-09-12 21:36:00,53.0,52.0,30.45,East,100,0.0,0.0,98,-99.99,,,-99.99,,2013-09-13 03:36:00,
2013-09-12 21:41:00,53.0,52.0,30.45,East,100,0.0,0.0,98,-99.99,,,-99.99,,2013-09-13 03:41:00,
2013-09-12 21:46:00,53.0,53.0,30.45,East,100,0.0,0.0,98,-99.99,,,-99.99,,2013-09-13 03:46:00,
2013-09-12 21:51:00,53.0,53.0,30.45,East,100,0.0,0.0,98,-99.99,,,-99.99,,2013-09-13 03:51:00,
2013-09-12 21:56:00,53.0,53.0,30.45,East,100,0.0,0.0,99,-99.99,,,-99.99,,2013-09-13 03:56:00,
2013-09-12 22:01:00,53.0,53.0,30.45,East,100,0.0,0.0,99,-99.99,,,-99.99,,2013-09-13 04:01:00,
2013-09-12 22:06:00,53.0,53.0,30.44,East,100,0.0,0.0,99,-99.99,,,-99.99,,2013-09-13 04:06:00,
2013-09-12 22:11:00,53.0,53.0,30.44,East,100,0.0,0.0,99,-99.99,,,-99.99,,2013-09-13 04:11:00,
2013-09-12 22:21:00,53.0,53.0,30.43,East,100,0.0,0.0,99,-99.99,,,-99.99,,2013-09-13 04:21:00,
2013-09-12 22:26:00,53.0,53.0,30.44,East,100,0.0,0.0,99,-99.99,,,-99.99,,2013-09-13 04:26:00,
2013-09-12 22:31:00,53.0,53.0,30.43,East,100,0.0,0.0,99,-99.99,,,-99.99,,2013-09-13 04:31:00,
2013-09-12 22:41:00,53.0,53.0,30.43,East,100,0.0,0.0,99,-99.99,,,-99.99,,2013-09-13 04:41:00,
2013-09-12 22:46:00,53.0,53.0,30.43,East,100,0.0,0.0,99,-99.99,,,-99.99,,2013-09-13 04:46:00,
2013-09-12 22:51:00,53.0,53.0,30.43,East,100,0.0,0.0,99,-99.99,,,-99.99,,2013-09-13 04:51:00,
2013-09-12 22:56:00,53.0,53.0,30.43,East,100,0.0,0.0,99,-99.99,,,-99.99,,2013-09-13 04:56:00,
2013-09-12 23:06:00,53.0,53.0,30.42,East,100,0.0,0.0,99,-99.99,,,-99.99,,2013-09-13 05:06:00,
2013-09-12 23:11:00,53.0,53.0,30.42,East,100,0.0,0.0,99,-99.99,,,-99.99,,2013-09-13 05:11:00,
2013-09-12 23:16:00,53.0,53.0,30.42,East,100,0.0,0.0,99,-99.99,,,-99.99,,2013-09-13 05:16:00,
2013-09-12 23:26:00,53.0,52.0,30.42,East,100,0.0,0.0,99,-99.99,,,-99.99,,2013-09-13 05:26:00,
2013-09-12 23:31:00,53.0,52.0,30.42,East,100,0.0,0.0,99,-99.99,,,-99.99,,2013-09-13 05:31:00,
2013-09-12 23:36:00,53.0,52.0,30.42,East,100,0.0,0.0,99,-99.99,,,-99.99,,2013-09-13 05:36:00,
2013-09-12 23:41:00,53.0,52.0,30.42,East,100,0.0,0.0,100,-99.99,,,-99.99,,2013-09-13 05:41:00,
2013-09-12 23:51:00,52.0,52.0,30.42,East,100,0.0,0.0,100,-99.99,,,-99.99,,2013-09-13 05:51:00,